Regional Weather Roundup
Issued by NWS Sterling, VA

Home | Current Version | Previous Version | Graphics & Text | Print | Product List | Glossary On
Versions: 1 2 3 4 5 6 7 8 9 10 11 12 13 14 15 16 17 18 19 20 21 22 23 24 25 26 27 28 29 30 31 32 33 34 35 36 37 38 39 40 41 42 43 44
000
ASUS41 KLWX 271310
RWRLWX

REGIONAL WEATHER ROUNDUP
NATIONAL WEATHER SERVICE BALTIMORE MD/WASHINGTON DC
800 AM EST FRI FEB 27 2015

Note: "FAIR" indicates few or no clouds below 12,000 feet
with no significant weather and/or obstructions to visibility.
 TC=TEMPERATURE CELSIUS

 * =Non NWS site. Station does not report precipitation (e.g. rain,
    snow, etc.), thunder, or fog.

DCZ001-MDZ009-015-VAZ040>042-051-053>054-271400-
WASHINGTON METRO

CITY           SKY/WX    TMP DP  RH WIND       PRES   REMARKS
WASHINGTON NAT CLOUDY    32  17  54 N17       30.37R WCI  21
DULLES         PTSUNNY   25  12  58 NW12      30.36R WCI  14
ANDREWS AFB    MIX PCPN  30  19  64 N13       30.34R WCI  20
FT BELVOIR     MIX PCPN  30  17  60 NW13G20   30.38R WCI  20
QUANTICO       CLOUDY    32  21  64 N12       30.38R WCI  23
COLLEGE PARK*  CLOUDY    32  19  59 N6        30.36R
LEESBURG*      SUNNY     27  14  59 NW15G22   30.37R WCI  15
GAITHERSBURG*  MOSUNNY   25  10  54 NW10      30.38R WCI  15

$$

MDZ006>007-011-014-271400-
BALTIMORE METRO

CITY           SKY/WX    TMP DP  RH WIND       PRES   REMARKS
BWI AIRPORT    CLOUDY    29  20  69 NW6       30.34R
MD SCIENCE CTR   N/A     28  20  71 MISG      30.34R
MARTIN STATE   PTSUNNY   28  25  86 N5        30.37R FOG
ANNAPOLIS      CLOUDY    29  22  75 N6        30.35R HAZE
FORT MEADE*    CLOUDY    30  21  69 NW8       30.37R WCI  23

$$

MDZ012-015-019>023-271400-
MARYLAND EASTERN SHORE

CITY           SKY/WX    TMP DP  RH WIND       PRES   REMARKS
OCEAN CITY     SUNNY     24  21  88 N5        30.33R FOG
SALISBURY      CLOUDY    24  21  88 CALM      30.34R FOG
BAY BRIDGE AP*   N/A     30  27  86 N6        30.35R
CAMBRIDGE*     MOSUNNY   30  27  86 CALM      30.34R
EASTON*        CLOUDY    30  27  86 CALM      30.37R

$$

MDZ017>025-271400-
SOUTHERN MARYLAND

CITY           SKY/WX    TMP DP  RH WIND       PRES   REMARKS
PATUXENT RIVER LGT SNOW  29  25  85 NW5       30.35R FOG
ST INIGOES     CLOUDY    29  24  82 CALM      30.33R
LEONARDTOWN*   CLOUDY    28  27  93 CALM      30.35R

$$

MDZ003>005-271400-
NORTH CENTRAL MARYLAND

CITY           SKY/WX    TMP DP  RH WIND       PRES   REMARKS
FREDERICK*     PTSUNNY   27  10  50 NW10      30.40R WCI  17
HAGERSTOWN APT SUNNY     20   6  55 NW17      30.36R WCI   5
WESTMINSTER*   LGT SNOW  19  16  86 N7        30.32R

$$

MDZ501>502-271400-
WESTERN MARYLAND

CITY           SKY/WX    TMP DP  RH WIND       PRES   REMARKS
OAKLAND*       CLOUDY     3   3 100 NW3       30.19R FOG
CUMBERLAND*    SUNNY     18   3  53 NW3       30.44R

$$

VAZ025>031-271400-
SHENANDOAH VALLEY

CITY           SKY/WX    TMP DP  RH WIND       PRES   REMARKS
WINCHESTER*    SUNNY     21   5  49 N7        30.36R
FRONT ROYAL*   FAIR      21  10  63 N5        30.34R
LURAY*         FAIR      28  19  69 NE8       30.33R WCI  20
NEW MARKET*    PTSUNNY   23  13  65 N3        30.32R
STAUNTON*      CLOUDY    24  18  78 CALM      30.31R
WAYNESBORO*    CLOUDY    20  15  80 CALM      30.28R

$$

WVZ021-048>050-054>055-271400-
EASTERN WEST VIRGINIA PANHANDLE

CITY           SKY/WX    TMP DP  RH WIND       PRES   REMARKS
MARTINSBURG    SUNNY     21   6  52 NW6       30.39R
PETERSBURG*    NOT AVBL

$$

VAZ036>039-050-271400-
CENTRAL FOOTHILLS

CITY           SKY/WX    TMP DP  RH WIND       PRES   REMARKS
CHARLOTTESVILL PTSUNNY   28  21  75 NE5       30.31R
CULPEPER*      CLOUDY    30  18  59 N10       30.36R WCI  21
ORANGE*        CLOUDY    32  21  64 N5        30.35R
GORDONSVILLE*  CLOUDY    29  19  67 NE6       30.32R
WARRENTON*     CLOUDY    29  21  71 N13       30.36R WCI  19

$$

VAZ055>057-271400-
NORTH AND CENTRAL PIEDMONT

CITY           SKY/WX    TMP DP  RH WIND       PRES   REMARKS
FREDERICKSBRG* CLOUDY    33  26  77 N10       30.35R WCI  24
STAFFORD*      CLOUDY    30  21  67 N8        30.39R WCI  23

$$

NCZ024-NYZ072-PAZ021-071-VAZ022-071-271400-
OTHER REGIONAL OBSERVATIONS

CITY           SKY/WX    TMP DP  RH WIND       PRES   REMARKS
NEW YORK CITY  MOSUNNY   18   3  52 VRB3      30.37R
PHILADELPHIA   LGT SNOW  22  16  78 N8        30.37R WCI  12
PITTSBURGH     MOSUNNY    4   0  83 NW6       30.40R
ROANOKE        CLOUDY    27  14  58 NW9       30.33R WCI  18
RICHMOND       MOSUNNY   30  27  88 CALM      30.32R FOG
RALEIGH        MOSUNNY   26  25  96 CALM      30.32R FOG

$$

ANZ530>537-271400-
MARINE OBSERVATIONS

STATION/POSITION TIME  TEMP    WIND        PRES
                       AIR SEA DIR/SP/G
                 (UTC) (F)     (DEG/KT/KT) (MB)
THOMAS PT LIGHT  1300   30 31   10/  7/  8 1028.9R
BALT KEY BRIDGE  1200          360/  5/  7 1026.4R
COVE POINT       1200             CALM     1025.6R
LEWISETTA        1200   27 32              1025.9R
SOLOMONS ISLAND  1206      32                N/A

$$



USA.gov is the U.S. government's official web portal to all federal, state and local government web resources and services.